Racecast

Wilson

Difficulty:i +9.7% (5000m, the usual distance here) · 151 results · 151 athletes

All 5000m
Rating scale ?

Distances raced here

DistanceDifficultyiResults FirstLast
5000m +9.7% 151 2024-09-17 2024-09-17

Best speed ratings all distances

Boys

#AthleteRatingi TimeDistSchoolDate
1 Wyatt Swinehart 118.7 21:59.1 5000m Thomas Sumter Academy (SC) 2024-09-17
2 Ashton Pierce 117.7 22:10.6 5000m Thomas Sumter Academy (SC) 2024-09-17
3 Jake Warren 113.6 19:46.4 5000m Trinity Collegiate (SC) 2024-09-17
4 Drew Beard 113.5 19:48 5000m Laurence Manning Academy (SC) 2024-09-17
5 Aiden Pierce 112.7 23:09.9 5000m Thomas Sumter Academy (SC) 2024-09-17
6 Ty Fisher 108.0 20:48 5000m Thomas Sumter Academy (SC) 2024-09-17
7 Nate Livingston 106.1 21:10.6 5000m Thomas Sumter Academy (SC) 2024-09-17
8 Daelyn Esaw 105.3 21:20.9 5000m Wilson (WA) 2024-09-17
9 Sam Peel 104.9 21:25.5 5000m Trinity Collegiate (SC) 2024-09-17
10 Logan Finkenstadt 103.4 25:13.9 5000m Thomas Sumter Academy (SC) 2024-09-17
11 Mark Kelly 101.9 25:36.8 5000m East Clarendon (SC) 2024-09-17
12 Aiden Lucas 101.4 25:44 5000m Trinity Collegiate (SC) 2024-09-17
13 Bobby Mumford 100.5 22:21.6 5000m Marlboro County (SC) 2024-09-17
14 Jake Sheehy 100.2 26:02.6 5000m Trinity Collegiate (SC) 2024-09-17
15 Leonardo Garcia-rivera 99.9 22:29.1 5000m Wilson (WA) 2024-09-17
16 Christavion Stephenson 99.8 22:30.4 5000m Lamar (TX) 2024-09-17
17 Chase Basta 99.6 22:33.6 5000m Trinity Collegiate (SC) 2024-09-17
18 Henry Sturkey 98.9 22:43 5000m Thomas Sumter Academy (SC) 2024-09-17
19 Michael Dority 98.8 22:45.3 5000m Lamar (TX) 2024-09-17
20 Nicholas Daw 98.7 22:46.7 5000m Chesterfield (SC) 2024-09-17
21 Samuel Peckham 97.3 26:48.7 5000m Thomas Sumter Academy (SC) 2024-09-17
22 Brandon Bridges 97.1 23:09 5000m Marlboro County (SC) 2024-09-17
23 Braylen Bullard 94.8 27:32.2 5000m Lamar (TX) 2024-09-17
24 Braylon Hunt 94.2 23:51.3 5000m East Clarendon (SC) 2024-09-17
25 Malik Parker 94.1 23:53.3 5000m Wilson (WA) 2024-09-17
26 Tryston Underwood 93.8 23:57.5 5000m East Clarendon (SC) 2024-09-17
27 Jett Robinson 93.7 27:50.5 5000m East Clarendon (SC) 2024-09-17
28 Deondre Wilson 93.3 24:05.7 5000m Marlboro County (SC) 2024-09-17
29 Jeremy Oyekan 93.2 28:00 5000m Wilson (WA) 2024-09-17
30 Elijah Borja 92.8 24:12.2 5000m Crestwood (MI) 2024-09-17
31 Ben Clegg 92.4 24:18.9 5000m Laurence Manning Academy (SC) 2024-09-17
32 Isaiah Brooks 91.8 24:28.2 5000m Crestwood (MI) 2024-09-17
33 Aiden Stephens 91.8 24:28.7 5000m Lamar (TX) 2024-09-17
34 John Green 91.0 24:41.4 5000m Marlboro County (SC) 2024-09-17
35 Larson Baker 91.0 28:41.2 5000m East Clarendon (SC) 2024-09-17
36 Trenden Johnson 89.8 25:00.8 5000m Crestwood (MI) 2024-09-17
37 Gabriel Cox 89.8 25:02.2 5000m Chesterfield (SC) 2024-09-17
38 Miseal Molina 89.6 29:07.4 5000m East Clarendon (SC) 2024-09-17
39 Tucker Gainey 88.8 31:25.4 5000m Thomas Sumter Academy (SC) 2024-09-17
40 Conner Bolton 88.4 25:24.9 5000m Wilson (WA) 2024-09-17
41 Brayden Spring 88.4 25:25.5 5000m East Clarendon (SC) 2024-09-17
42 Charlie Kirby 88.4 25:25.7 5000m East Clarendon (SC) 2024-09-17
43 Rhett Leviner 88.0 29:39.4 5000m Chesterfield (SC) 2024-09-17
44 James Harris 87.2 25:45.8 5000m Crestwood (MI) 2024-09-17
45 Coley Norris 86.5 25:57.9 5000m Trinity Collegiate (SC) 2024-09-17
46 Daniel Caufield 86.0 30:21.3 5000m Thomas Sumter Academy (SC) 2024-09-17
47 Anthony Kiggins 84.1 26:42.6 5000m Crestwood (MI) 2024-09-17
48 Robbie Clark 83.7 31:11.5 5000m Trinity Collegiate (SC) 2024-09-17
49 Jason Skinner 82.0 27:23.8 5000m Laurence Manning Academy (SC) 2024-09-17
50 Kenley Sullivan 81.8 27:27.5 5000m East Clarendon (SC) 2024-09-17
51 Nicholas McElveen 80.9 27:47.4 5000m East Clarendon (SC) 2024-09-17
52 Naszir Smalls 80.6 27:52.2 5000m Wilson (WA) 2024-09-17
53 Christian Williams 80.6 27:53.5 5000m Crestwood (MI) 2024-09-17
54 Nylan Angus 80.4 27:56.3 5000m Wilson (WA) 2024-09-17
55 Granger Barrineau 80.2 28:00.9 5000m East Clarendon (SC) 2024-09-17
56 Jack Howard 79.5 32:50 5000m Thomas Sumter Academy (SC) 2024-09-17
57 Liam Hill 78.0 33:27.8 5000m Emmanuel Christian (SC) 2024-09-17
58 Carmello Whitaker 77.3 29:04.5 5000m Wilson (WA) 2024-09-17
59 Wyatt Kirby 77.1 33:51.4 5000m East Clarendon (SC) 2024-09-17
60 Zy' Daryus Tedder 76.4 29:25.1 5000m Wilson (WA) 2024-09-17

View all →

Girls

#AthleteRatingi TimeDistSchoolDate
1 Rokel Sanders 114.8 23:36.8 5000m Wilson (WA) 2024-09-17
2 Kelsey Martin 114.2 23:44.1 5000m Thomas Sumter Academy (SC) 2024-09-17
3 Kinsley Hardwick 111.5 26:31.3 5000m Chesterfield (SC) 2024-09-17
4 Hashem Oyeka 108.8 24:55.6 5000m Wilson (WA) 2024-09-17
5 Keira Anderson 107.7 27:28.4 5000m Thomas Sumter Academy (SC) 2024-09-17
6 Kinsley Lowe 107.6 25:12 5000m Chesterfield (SC) 2024-09-17
7 Risden Dunlap 106.3 27:49.5 5000m Thomas Sumter Academy (SC) 2024-09-17
8 Morgan Conklin 105.6 25:40.8 5000m Laurence Manning Academy (SC) 2024-09-17
9 Jubilee LEI 105.2 28:07 5000m Trinity Collegiate (SC) 2024-09-17
10 Annie Boss 105.0 28:09.9 5000m Thomas Sumter Academy (SC) 2024-09-17
11 Abbie Fisher 103.7 26:08.1 5000m Thomas Sumter Academy (SC) 2024-09-17
12 Shae Lee 102.6 26:25.4 5000m East Clarendon (SC) 2024-09-17
13 Amire Lowe 101.5 26:41.8 5000m Chesterfield (SC) 2024-09-17
14 Shakayla Burroughs 97.6 27:45.7 5000m Wilson (WA) 2024-09-17
15 Meredith Coffey 97.2 27:53.5 5000m Laurence Manning Academy (SC) 2024-09-17
16 Brarasia Ferrer 97.1 27:55 5000m Crestwood (MI) 2024-09-17
17 Stary Samuel 94.9 28:34 5000m Wilson (WA) 2024-09-17
18 Aaliyah Mcneil 94.1 28:47.7 5000m Wilson (WA) 2024-09-17
19 Chloe Mignogna 93.5 31:38.1 5000m Chesterfield (SC) 2024-09-17
20 Kira Owens 93.3 29:03.3 5000m East Clarendon (SC) 2024-09-17
21 Kaylee Leonard 91.4 29:39 5000m Chesterfield (SC) 2024-09-17
22 Leanissa Swinton 91.2 29:42.4 5000m Wilson (WA) 2024-09-17
23 Hayden Robinson 91.0 32:29.9 5000m Wilson (WA) 2024-09-17
24 Mattie Kelly 89.5 30:17.6 5000m East Clarendon (SC) 2024-09-17
25 Sophie Bell 89.4 33:05.3 5000m Thomas Sumter Academy (SC) 2024-09-17
26 Journey Thomas 88.5 30:37.1 5000m Lamar (TX) 2024-09-17
27 Audrey Allen 87.3 33:52.8 5000m Thomas Sumter Academy (SC) 2024-09-17
28 Angela Rogers 86.2 31:27.1 5000m Marlboro County (SC) 2024-09-17
29 Sharetta Jones 84.5 32:04.8 5000m Wilson (WA) 2024-09-17
30 Leah Spears 84.5 32:04.9 5000m Wilson (WA) 2024-09-17
31 Brooklynn Moore 83.5 35:25 5000m Thomas Sumter Academy (SC) 2024-09-17
32 Cadence Mignogna 83.0 32:40.8 5000m Chesterfield (SC) 2024-09-17
33 Lizze Mims 81.5 36:16.7 5000m East Clarendon (SC) 2024-09-17
34 Emmy Lockhart 81.4 36:21.1 5000m Chesterfield (SC) 2024-09-17
35 Graycee Duncan 81.2 33:22.2 5000m Marlboro County (SC) 2024-09-17
36 Ateirah Jackson 80.6 36:41.7 5000m Emmanuel Christian (SC) 2024-09-17
37 Destinee McFadden 80.6 33:38.7 5000m Wilson (WA) 2024-09-17
38 Alexia Benitez 79.3 34:11.3 5000m Crestwood (MI) 2024-09-17
39 Mya Bennett 78.8 34:23.4 5000m Marlboro County (SC) 2024-09-17
40 Scarlet Moore 77.5 34:58.2 5000m Emmanuel Christian (SC) 2024-09-17
41 Journee Mcfadden 77.0 35:11.1 5000m Wilson (WA) 2024-09-17
42 Autum McColl 75.9 35:42.3 5000m Marlboro County (SC) 2024-09-17
43 Briley Bristow 75.8 35:44.7 5000m Chesterfield (SC) 2024-09-17
44 RaNya Wilson 75.3 35:59.5 5000m Wilson (WA) 2024-09-17
45 Zoey Miller 75.1 36:06 5000m Wilson (WA) 2024-09-17
46 Aaliyah Dudley-Thomas 74.8 36:13.1 5000m Wilson (WA) 2024-09-17
47 Mary Margaret Reid 74.8 40:33.8 5000m Thomas Sumter Academy (SC) 2024-09-17
48 Chole McConnell 74.6 36:19.5 5000m Crestwood (MI) 2024-09-17
49 Zalie Hornbuckle 74.3 39:48.7 5000m Chesterfield (SC) 2024-09-17
50 Destiny Gist 73.6 36:49 5000m Marlboro County (SC) 2024-09-17
51 Desirae Miller 73.6 36:50 5000m Wilson (WA) 2024-09-17
52 Shiloh Faulkenberry 73.5 40:15.9 5000m Chesterfield (SC) 2024-09-17
53 Jolene Swinehart 73.0 40:32.2 5000m Thomas Sumter Academy (SC) 2024-09-17
54 Lakin Fleming 72.3 37:28.5 5000m Wilson (WA) 2024-09-17
55 Alexis Wiegel 72.3 40:56.5 5000m Thomas Sumter Academy (SC) 2024-09-17
56 Maggie Martin 71.3 41:30.3 5000m Chesterfield (SC) 2024-09-17
57 Macy Larymore 70.5 41:58.8 5000m Emmanuel Christian (SC) 2024-09-17
58 Alicia-lyn Easly 70.3 38:34.7 5000m Wilson (WA) 2024-09-17
59 Gemma Benton 70.3 42:06.3 5000m Emmanuel Christian (SC) 2024-09-17
60 Jozanna Quezada 69.1 39:13.4 5000m Crestwood (MI) 2024-09-17

View all →

Best team performances by rating top-5 average rating, one race, all distances

Boys

#SchoolTop-5 avg DistMeetDate
1 Thomas Sumter Academy (SC) 112.6 5000m Wilson Home Meet #1 2024-09-17
2 Trinity Collegiate (SC) 103.9 5000m Wilson Home Meet #1 2024-09-17
3 Wilson (WA) 96.2 5000m Wilson Home Meet #1 2024-09-17
4 East Clarendon (SC) 94.9 5000m Wilson Home Meet #1 2024-09-17
5 Lamar (TX) 92.2 5000m Wilson Home Meet #1 2024-09-17
6 Crestwood (MI) 89.2 5000m Wilson Home Meet #1 2024-09-17
7 Marlboro County (SC) 88.9 5000m Wilson Home Meet #1 2024-09-17
8 Chesterfield (SC) 83.2 5000m Wilson Home Meet #1 2024-09-17
9 Laurence Manning Academy (SC) 82.1 5000m Wilson Home Meet #1 2024-09-17

View all →

Girls

#SchoolTop-5 avg DistMeetDate
1 Thomas Sumter Academy (SC) 107.4 5000m Wilson Home Meet #1 2024-09-17
2 Wilson (WA) 102.0 5000m Wilson Home Meet #1 2024-09-17
3 Chesterfield (SC) 101.1 5000m Wilson Home Meet #1 2024-09-17
4 Marlboro County (SC) 79.2 5000m Wilson Home Meet #1 2024-09-17
5 Crestwood (MI) 76.1 5000m Wilson Home Meet #1 2024-09-17

View all →

Meets held here all distances

MeetLast heldDistanceResults
Wilson Home Meet #1 2024-09-17 5000 151

View all →